Weather History for Mississippi Canyon, LA

Change the Weather History Date:

Thursday, January 9, 2014

  Actual Average Record
Temperature  
Mean Temperature 62 °F -  
Max Temperature 64 °F - - ()
Min Temperature 60 °F - - ()
Degree Days  
Heating Degree Days 3    
Growing Degree Days 12 (Base 50)    
Moisture  
Dew Point 55 °F    
Average Humidity 76    
Maximum Humidity 88    
Minimum Humidity 63    
Precipitation  
Precipitation 0.00 in - - ()
Sea Level Pressure  
Sea Level Pressure 30.28 in    
Wind  
Wind Speed 15 mph (East)    
Max Wind Speed 22 mph    
Max Gust Speed 22 mph    
Visibility 10 miles    
Events      
T = Trace of Precipitation, MM = Missing Value Source: NWS Daily Summary

Daily Weather History Graph

Daily Weather History Graph

Search for Another Location

Airport:

Trip Planner

Search our weather history database for the weather conditions in past years. The results will help you decide how hot, cold, wet, or windy it might be!

Date:

Astronomy

Jan. 09, 2014 Rise Set
Actual Time 6:53 AM CST 5:19 PM CST
Civil Twilight 6:27 AM CST 5:45 PM CST
Nautical Twilight 5:58 AM CST 6:14 PM CST
Astronomical Twilight 5:29 AM CST 6:43 PM CST
Moon 12:36 PM CST (1/9) 1:12 AM CST (1/9)
Length of Visible Light 11h 17m
Length of Day
10h 26m
Waxing Gibbous, 66% of the Moon is Illuminated
Jan 9
Waxing Gibbous
Jan 15
Full
Jan 23
Last Quarter
Jan 30
New
Feb 6
First Quarter

Hourly Weather History & Observations

Time (CST) Temp. Dew Point Humidity Pressure Visibility Wind Dir Wind Speed Gust Speed Precip Events Conditions
12:15 AM 60.8 °F 51.8 °F 72% 30.31 in 10.0 mi SE 16.1 mph - N/A   Overcast
12:35 AM 60.8 °F 51.8 °F 72% 30.31 in 10.0 mi ESE 16.1 mph 21.9 mph N/A   Overcast
12:55 AM 62.6 °F 50.0 °F 63% 30.30 in 10.0 mi SE 16.1 mph - N/A   Overcast
1:15 AM 62.6 °F 50.0 °F 63% 30.30 in 10.0 mi SE 13.8 mph 20.7 mph N/A   Mostly Cloudy
1:35 AM 62.6 °F 51.8 °F 68% 30.30 in 10.0 mi ESE 12.7 mph - N/A   Overcast
1:55 AM 62.6 °F 51.8 °F 68% 30.29 in 10.0 mi SE 11.5 mph 18.4 mph N/A   Mostly Cloudy
2:15 AM 62.6 °F 51.8 °F 68% 30.29 in 10.0 mi ESE 12.7 mph - N/A   Overcast
2:35 AM 62.6 °F 51.8 °F 68% 30.29 in 10.0 mi ESE 12.7 mph - N/A   Overcast
2:55 AM 62.6 °F 53.6 °F 72% 30.30 in 10.0 mi East 11.5 mph - N/A   Overcast
3:15 AM 62.6 °F 53.6 °F 72% 30.29 in 10.0 mi SE 12.7 mph - N/A   Overcast
3:35 AM 62.6 °F 53.6 °F 72% 30.29 in 10.0 mi ESE 12.7 mph - N/A   Overcast
3:55 AM 62.6 °F 53.6 °F 72% 30.29 in 10.0 mi ESE 15.0 mph - N/A   Overcast
4:15 AM 62.6 °F 53.6 °F 72% 30.28 in 10.0 mi ESE 13.8 mph - N/A   Overcast
4:35 AM 62.6 °F 53.6 °F 72% 30.28 in 10.0 mi ESE 15.0 mph - N/A   Overcast
4:55 AM 64.4 °F 53.6 °F 68% 30.28 in 10.0 mi ESE 12.7 mph - N/A   Overcast
5:15 AM 64.4 °F 53.6 °F 68% 30.28 in 10.0 mi ESE 13.8 mph - N/A   Overcast
5:35 AM 64.4 °F 53.6 °F 68% 30.28 in 10.0 mi ESE 16.1 mph - N/A   Overcast
5:55 AM 64.4 °F 53.6 °F 68% 30.28 in 10.0 mi ESE 13.8 mph - N/A   Overcast
6:15 AM 64.4 °F 53.6 °F 68% 30.28 in 10.0 mi ESE 15.0 mph - N/A   Overcast
6:35 AM 64.4 °F 53.6 °F 68% 30.29 in 10.0 mi ESE 13.8 mph - N/A   Mostly Cloudy
6:55 AM 64.4 °F 55.4 °F 73% 30.29 in 10.0 mi East 13.8 mph - N/A   Scattered Clouds
7:15 AM 62.6 °F 55.4 °F 77% 30.30 in 10.0 mi ENE 15.0 mph - N/A   Mostly Cloudy
7:35 AM 62.6 °F 57.2 °F 82% 30.31 in 10.0 mi East 15.0 mph - N/A   Mostly Cloudy
7:55 AM 62.6 °F 55.4 °F 77% 30.31 in 10.0 mi ENE 15.0 mph - N/A   Overcast
8:15 AM 62.6 °F 55.4 °F 77% 30.32 in 10.0 mi NE 15.0 mph - N/A   Mostly Cloudy
8:35 AM 62.6 °F 55.4 °F 77% 30.32 in 10.0 mi NE 16.1 mph - N/A   Scattered Clouds
8:55 AM 62.6 °F 53.6 °F 72% 30.33 in 10.0 mi NE 17.3 mph - N/A   Mostly Cloudy
9:15 AM 62.6 °F 53.6 °F 72% 30.33 in 10.0 mi NE 17.3 mph - N/A   Overcast
9:35 AM 62.6 °F 55.4 °F 77% 30.33 in 10.0 mi ENE 17.3 mph - N/A   Mostly Cloudy
9:55 AM 62.6 °F 55.4 °F 77% 30.33 in 10.0 mi NE 18.4 mph - N/A   Overcast
10:15 AM 62.6 °F 55.4 °F 77% 30.33 in 10.0 mi NE 19.6 mph - N/A   Overcast
10:35 AM 60.8 °F 55.4 °F 82% 30.32 in 10.0 mi ENE 19.6 mph - N/A   Overcast
10:55 AM 60.8 °F 55.4 °F 82% 30.32 in 10.0 mi NE 20.7 mph - N/A   Overcast
11:15 AM 62.6 °F 55.4 °F 77% 30.31 in 10.0 mi ENE 20.7 mph - N/A   Overcast
11:35 AM 62.6 °F 55.4 °F 77% 30.30 in 10.0 mi NE 21.9 mph - N/A   Overcast
11:55 AM 62.6 °F 55.4 °F 77% 30.29 in 10.0 mi ENE 20.7 mph - N/A   Overcast
12:15 PM 62.6 °F 55.4 °F 77% 30.27 in 10.0 mi ENE 18.4 mph - N/A   Overcast
12:35 PM 62.6 °F 57.2 °F 82% 30.26 in 10.0 mi ENE 18.4 mph - N/A   Overcast
12:55 PM 62.6 °F 57.2 °F 82% 30.25 in 10.0 mi NE 16.1 mph - N/A   Overcast
1:15 PM 62.6 °F 57.2 °F 82% 30.24 in 10.0 mi NE 15.0 mph - N/A   Overcast
1:35 PM 62.6 °F 57.2 °F 82% 30.24 in 10.0 mi ENE 16.1 mph - N/A   Overcast
1:55 PM 62.6 °F 57.2 °F 82% 30.23 in 10.0 mi ENE 16.1 mph - N/A   Mostly Cloudy
2:15 PM 62.6 °F 59.0 °F 88% 30.23 in - ENE 15.0 mph - N/A   Mostly Cloudy
2:35 PM 64.4 °F 59.0 °F 83% 30.22 in - ENE 13.8 mph - N/A   Mostly Cloudy
2:55 PM 64.4 °F 59.0 °F 83% 30.22 in 10.0 mi ENE 13.8 mph - N/A   Overcast
3:15 PM 64.4 °F 59.0 °F 83% 30.22 in 10.0 mi ENE 15.0 mph - N/A   Overcast
3:35 PM 64.4 °F 59.0 °F 83% 30.23 in 10.0 mi ENE 16.1 mph - N/A   Overcast
3:55 PM 64.4 °F 59.0 °F 83% 30.23 in 10.0 mi ENE 15.0 mph 20.7 mph N/A   Mostly Cloudy
4:15 PM 64.4 °F 59.0 °F 83% 30.23 in 10.0 mi ENE 18.4 mph - N/A   Overcast
5:15 PM 64.4 °F 59.0 °F 83% 30.23 in 10.0 mi ENE 18.4 mph - N/A   Mostly Cloudy
5:35 PM 64.4 °F 60.8 °F 88% 30.23 in 10.0 mi ENE 16.1 mph - N/A   Mostly Cloudy
5:45 PM 64.4 °F 60.8 °F 88% 30.23 in 10.0 mi ENE 18.4 mph - N/A   Mostly Cloudy